Grants-Milan, NM

2:27 AM MST on January 21, 2018 (GMT -0700)
Grants-Milan Municipal

Weather History for KGNT - March, 2013

Change the Weather History Date:

Friday, March 1, 2013

  Actual Average Record
Temperature  
Mean Temperature 36 °F -  
Max Temperature 56 °F 55 °F 74 °F (1986)
Min Temperature 16 °F 23 °F 8 °F (1954)
Degree Days  
Heating Degree Days 29    
Moisture  
Dew Point 12 °F    
Average Humidity 39    
Maximum Humidity 66    
Minimum Humidity 22    
Precipitation  
Precipitation 0.00 in - - ()
Sea Level Pressure  
Sea Level Pressure 30.38 in    
Wind  
Wind Speed 11 mph (NNW)    
Max Wind Speed 25 mph    
Max Gust Speed 37 mph    
Visibility 10 miles    
Events      
Averages and records for this station are not official NWS values.
T = Trace of Precipitation, MM = Missing Value Source: NWS Daily Summary

Daily Weather History Graph

Daily Weather History Graph

Search for Another Location

Airport or City:

Trip Planner

Search our weather history database for the weather conditions in past years. The results will help you decide how hot, cold, wet, or windy it might be!

Date:

Astronomy

Mar. 01, 2013 Rise Set
Actual Time 6:40 AM MST 6:07 PM MST
Civil Twilight 6:15 AM MST 6:32 PM MST
Nautical Twilight 5:45 AM MST 7:02 PM MST
Astronomical Twilight 5:16 AM MST 7:31 PM MST
Moon 10:31 PM MST (3/1) 8:40 AM MST (3/1)
Length of Visible Light 12h 17m
Length of Day
11h 26m
Waning Gibbous, 83% of the Moon is Illuminated
Mar 1
Waning Gibbous
Mar 4
Last Quarter
Mar 11
New
Mar 19
First Quarter
Mar 27
Full

Hourly Weather History & Observations

Time (MST) Temp. Windchill Dew Point Humidity Pressure Visibility Wind Dir Wind Speed Gust Speed Precip Events Conditions
12:15 AM 23.9 °F 13.5 °F -0.0 °F 35% 30.38 in 10.0 mi NNW 10.4 mph - N/A   Clear
12:35 AM 24.1 °F 14.4 °F -0.0 °F 35% 30.38 in 10.0 mi NNW 9.2 mph - N/A   Clear
1:15 AM 23.5 °F 13.0 °F 0.5 °F 37% 30.38 in 10.0 mi North 10.4 mph - N/A   Clear
1:35 AM 23.5 °F 13.0 °F 1.0 °F 38% 30.38 in 10.0 mi North 10.4 mph - N/A   Clear
1:55 AM 22.5 °F 13.2 °F 1.0 °F 40% 30.37 in 10.0 mi North 8.1 mph - N/A   Clear
2:15 AM 21.9 °F 11.7 °F 1.9 °F 42% 30.37 in 10.0 mi North 9.2 mph - N/A   Clear
2:55 AM 20.1 °F 10.3 °F 1.6 °F 45% 30.38 in 10.0 mi North 8.1 mph - N/A   Clear
3:15 AM 20.3 °F 9.8 °F 1.6 °F 44% 30.38 in 10.0 mi North 9.2 mph - N/A   Clear
3:35 AM 21.2 °F 11.7 °F 2.7 °F 45% 30.38 in 10.0 mi NNW 8.1 mph - N/A   Clear
4:15 AM 17.6 °F 5.7 °F 1.4 °F 49% 30.38 in 10.0 mi NNW 10.4 mph - N/A   Clear
4:35 AM 19.4 °F 9.5 °F 3.2 °F 49% 30.38 in 10.0 mi NW 8.1 mph - N/A   Clear
4:55 AM 18.0 °F 9.8 °F 2.3 °F 50% 30.38 in 10.0 mi NNW 5.8 mph - N/A   Clear
5:15 AM 17.4 °F 7.1 °F 2.3 °F 52% 30.38 in 10.0 mi NNW 8.1 mph - N/A   Clear
5:35 AM 17.6 °F 8.2 °F 2.8 °F 53% 30.37 in 10.0 mi NNW 6.9 mph - N/A   Clear
5:55 AM 18.9 °F 8.0 °F 4.5 °F 54% 30.38 in 10.0 mi NNW 9.2 mph - N/A   Clear
6:15 AM 17.6 °F 6.4 °F 3.2 °F 53% 30.38 in 10.0 mi NNW 9.2 mph - N/A   Clear
6:35 AM 16.2 °F 6.5 °F 2.8 °F 56% 30.38 in 10.0 mi North 6.9 mph - N/A   Clear
6:55 AM 16.7 °F 6.2 °F 3.6 °F 56% 30.39 in 10.0 mi NNW 8.1 mph - N/A   Clear
7:15 AM 18.5 °F 10.4 °F 3.9 °F 53% 30.40 in 10.0 mi NNW 5.8 mph - N/A   Clear
7:35 AM 22.8 °F 15.5 °F 5.9 °F 48% 30.40 in 10.0 mi North 5.8 mph - N/A   Clear
7:55 AM 26.8 °F 20.2 °F 7.0 °F 43% 30.41 in 10.0 mi NNW 5.8 mph - N/A   Clear
8:15 AM 30.4 °F 23.6 °F 7.5 °F 38% 30.41 in 10.0 mi NNW 6.9 mph - N/A   Clear
8:35 AM 35.4 °F 27.3 °F 9.9 °F 35% 30.42 in 10.0 mi NNW 11.5 mph - N/A   Clear
8:55 AM 39.2 °F 31.6 °F 11.1 °F 32% 30.42 in 10.0 mi NNW 12.7 mph - N/A   Clear
9:15 AM 42.3 °F 34.1 °F 13.1 °F 31% 30.41 in 10.0 mi NNW 17.3 mph - N/A   Clear
9:35 AM 43.9 °F 36.5 °F 14.4 °F 30% 30.41 in 10.0 mi North 16.1 mph 24.2 mph N/A   Clear
9:55 AM 45.1 °F 37.1 °F 15.8 °F 31% 30.40 in 10.0 mi NW 20.7 mph 27.6 mph N/A   Clear
10:15 AM 47.1 °F - 17.4 °F 31% 30.38 in 10.0 mi NNW 25.3 mph 28.8 mph N/A   Clear
10:35 AM 48.6 °F - 17.8 °F 29% 30.38 in 10.0 mi NNW 23.0 mph 33.4 mph N/A   Clear
10:55 AM 49.3 °F - 18.3 °F 29% 30.38 in 10.0 mi NNW 21.9 mph 34.5 mph N/A   Clear
11:15 AM 50.4 °F - 18.7 °F 29% 30.38 in 10.0 mi NNW 24.2 mph 34.5 mph N/A   Clear
11:35 AM 51.6 °F - 18.1 °F 27% 30.40 in 10.0 mi North 25.3 mph 36.8 mph N/A   Clear
11:55 AM 52.3 °F - 18.0 °F 26% 30.39 in 10.0 mi NNW 25.3 mph 33.4 mph N/A   Clear
12:15 PM 52.9 °F - 18.1 °F 26% 30.39 in 10.0 mi NNW 24.2 mph 35.7 mph N/A   Clear
12:35 PM 53.4 °F - 19.0 °F 26% 30.38 in 10.0 mi NW 23.0 mph 33.4 mph N/A   Clear
12:55 PM 54.0 °F - 19.6 °F 26% 30.37 in 10.0 mi NW 16.1 mph 27.6 mph N/A   Clear
1:15 PM 54.9 °F - 19.6 °F 25% 30.36 in 10.0 mi NNW 19.6 mph 25.3 mph N/A   Clear
1:35 PM 55.4 °F - 19.2 °F 24% 30.35 in 10.0 mi NW 17.3 mph 26.5 mph N/A   Clear
1:55 PM 55.8 °F - 18.9 °F 24% 30.35 in 10.0 mi NW 23.0 mph 27.6 mph N/A   Clear
2:15 PM 55.8 °F - 19.0 °F 24% 30.35 in 10.0 mi NNW 20.7 mph 31.1 mph N/A   Clear
2:35 PM 55.4 °F - 19.0 °F 24% 30.34 in 10.0 mi NNW 19.6 mph 27.6 mph N/A   Clear
2:55 PM 55.9 °F - 18.5 °F 23% 30.35 in 10.0 mi North - - N/A   Clear
3:15 PM 56.3 °F - 18.5 °F 23% 30.34 in 10.0 mi North 17.3 mph 27.6 mph N/A   Clear
3:35 PM 56.3 °F - 18.3 °F 23% 30.34 in 10.0 mi NNW 19.6 mph 27.6 mph N/A   Clear
3:55 PM 56.1 °F - 17.8 °F 22% 30.34 in 10.0 mi NNW 15.0 mph 24.2 mph N/A   Clear
4:15 PM 55.9 °F - 18.1 °F 23% 30.34 in 10.0 mi North 18.4 mph 26.5 mph N/A   Clear
4:35 PM 55.6 °F - 17.2 °F 22% 30.34 in 10.0 mi NNW 16.1 mph - N/A   Clear
5:15 PM 53.6 °F - 17.4 °F 24% 30.34 in 10.0 mi NNW 16.1 mph 20.7 mph N/A   Clear
5:35 PM 52.3 °F - 17.2 °F 25% 30.34 in 10.0 mi NNW 13.8 mph 19.6 mph N/A   Clear
5:55 PM 50.2 °F - 17.6 °F 28% 30.35 in 10.0 mi North 10.4 mph - N/A   Clear
6:15 PM 46.2 °F 44.1 °F 16.5 °F 31% 30.35 in 10.0 mi North 4.6 mph - N/A   Clear
6:35 PM 40.8 °F 37.8 °F 14.9 °F 35% 30.36 in 10.0 mi NNW 4.6 mph - N/A   Clear
7:15 PM 37.6 °F 33.1 °F 14.5 °F 39% 30.38 in 10.0 mi NNW 5.8 mph - N/A   Clear
7:35 PM 33.8 °F 27.7 °F 13.5 °F 43% 30.38 in 10.0 mi NW 6.9 mph - N/A   Clear
7:55 PM 33.1 °F 27.7 °F 13.8 °F 45% 30.40 in 10.0 mi NW 5.8 mph - N/A   Clear
8:15 PM 31.6 °F 25.1 °F 14.7 °F 50% 30.40 in 10.0 mi NW 6.9 mph - N/A   Clear
8:35 PM 33.8 °F 29.6 °F 15.8 °F 48% 30.40 in 10.0 mi WNW 4.6 mph - N/A   Clear
8:55 PM 32.0 °F 27.5 °F 15.4 °F 51% 30.41 in 10.0 mi West 4.6 mph - N/A   Clear
9:15 PM 29.3 °F 23.2 °F 14.7 °F 55% 30.41 in 10.0 mi WNW 5.8 mph - N/A   Clear
9:35 PM 31.1 °F - 16.3 °F 54% 30.41 in 10.0 mi Calm Calm - N/A   Clear
9:55 PM 25.7 °F 21.5 °F 12.2 °F 57% 30.42 in 10.0 mi North 3.5 mph - N/A   Clear
10:15 PM 28.0 °F 20.0 °F 14.5 °F 57% 30.42 in 10.0 mi NW 8.1 mph - N/A   Clear
10:35 PM 28.8 °F - 16.5 °F 60% 30.42 in 10.0 mi Calm Calm - N/A   Clear
10:55 PM 27.3 °F - 17.2 °F 66% 30.42 in 10.0 mi Calm Calm - N/A   Clear
11:15 PM 26.6 °F - 15.3 °F 62% 30.42 in 10.0 mi Calm Calm - N/A   Clear
11:35 PM 26.2 °F - 14.7 °F 62% 30.42 in 10.0 mi Calm Calm - N/A   Clear